When you browse on this site, cookies collect data to enhance your experience and personalize the content and advertising you see.
Visit our Privacy Policy to learn more. By continuing to use the site, you agree to this use of cookies and data.
  • In United Kingdom
  • List of Countries
  • For 7 days
  • Water Temperature
  • Weather Map
  • Weather Widgets
  • user-avatar
    Login

    Hourly Weather Julkow

    Today, 16 October, Wednesday

    Time Temperature Precipitation Wind Pressure Humidity
    00:00 +14°C° 0 mm 4 mps 746 mmHg 68%
    01:00 +14°C° 0 mm 4 mps 746 mmHg 70%
    02:00 +13°C° 0 mm 4 mps 746 mmHg 71%
    03:00 +13°C° 0 mm 4 mps 746 mmHg 72%
    04:00 +13°C° 0 mm 4 mps 745 mmHg 73%
    05:00 +12°C° 0 mm 4 mps 745 mmHg 74%
    06:00 +12°C° 0 mm 4 mps 745 mmHg 73%
    07:00 +12°C° 0 mm 4 mps 745 mmHg 72%
    08:00 +13°C° 0 mm 4 mps 745 mmHg 71%
    09:00 +14°C° 0 mm 5 mps 745 mmHg 65%
    10:00 +16°C° 0 mm 5 mps 745 mmHg 60%
    11:00 +19°C° 0 mm 6 mps 745 mmHg 55%
    12:00 +20°C° 0 mm 6 mps 745 mmHg 53%
    13:00 +21°C° 0 mm 6 mps 745 mmHg 51%
    14:00 +22°C° 0 mm 6 mps 746 mmHg 49%
    15:00 +21°C° 0 mm 5 mps 745 mmHg 55%
    16:00 +20°C° 0 mm 4 mps 745 mmHg 61%
    17:00 +19°C° 0 mm 3 mps 745 mmHg 67%
    18:00 +18°C° 0 mm 3 mps 746 mmHg 70%
    19:00 +18°C° 0 mm 3 mps 746 mmHg 73%
    20:00 +17°C° 0 mm 4 mps 747 mmHg 76%
    21:00 +16°C° 0 mm 3 mps 747 mmHg 79%
    22:00 +14°C° 0 mm 3 mps 747 mmHg 82%
    23:00 +13°C° 0 mm 3 mps 748 mmHg 85%

    Tomorrow, 17 October, Thursday

    Time Temperature Precipitation Wind Pressure Humidity
    00:00 +13°C° 0 mm 3 mps 748 mmHg 85%
    01:00 +12°C° 0 mm 3 mps 748 mmHg 86%
    02:00 +11°C° 0 mm 3 mps 749 mmHg 86%
    03:00 +11°C° 0 mm 3 mps 749 mmHg 86%
    04:00 +10°C° 0 mm 3 mps 749 mmHg 86%
    05:00 +10°C° 0 mm 3 mps 749 mmHg 86%
    06:00 +10°C° 0 mm 3 mps 749 mmHg 85%
    07:00 +10°C° 0 mm 4 mps 749 mmHg 85%
    08:00 +10°C° 0 mm 4 mps 749 mmHg 84%
    09:00 +12°C° 0 mm 4 mps 750 mmHg 76%
    10:00 +13°C° 0 mm 4 mps 750 mmHg 68%
    11:00 +15°C° 0 mm 4 mps 750 mmHg 61%
    12:00 +17°C° 0 mm 4 mps 750 mmHg 58%
    13:00 +18°C° 0 mm 4 mps 750 mmHg 56%
    14:00 +18°C° 0 mm 4 mps 750 mmHg 54%
    15:00 +18°C° 0 mm 3 mps 750 mmHg 57%
    16:00 +17°C° 0 mm 3 mps 750 mmHg 61%
    17:00 +16°C° 0 mm 2 mps 750 mmHg 64%
    18:00 +16°C° 0 mm 2 mps 750 mmHg 66%
    19:00 +15°C° 0 mm 2 mps 750 mmHg 68%
    20:00 +15°C° 0 mm 2 mps 750 mmHg 70%
    21:00 +14°C° 0 mm 2 mps 750 mmHg 71%
    22:00 +14°C° 0 mm 2 mps 750 mmHg 73%
    23:00 +14°C° 0 mm 2 mps 750 mmHg 74%

    Day after tomorrow, 18 October, Friday

    Time Temperature Precipitation Wind Pressure Humidity
    00:00 +13°C° 0 mm 2 mps 750 mmHg 75%
    01:00 +13°C° 0 mm 2 mps 750 mmHg 75%
    02:00 +13°C° 0 mm 2 mps 750 mmHg 76%
    03:00 +13°C° 0 mm 2 mps 750 mmHg 76%
    04:00 +12°C° 0 mm 2 mps 750 mmHg 76%
    05:00 +12°C° 0 mm 2 mps 750 mmHg 77%
    06:00 +13°C° 0 mm 2 mps 750 mmHg 77%
    07:00 +13°C° 0 mm 2 mps 750 mmHg 78%
    08:00 +13°C° 0 mm 2 mps 750 mmHg 79%
    09:00 +14°C° 0 mm 2 mps 750 mmHg 77%
    10:00 +15°C° 0 mm 2 mps 750 mmHg 74%
    11:00 +16°C° 0 mm 2 mps 750 mmHg 72%
    12:00 +17°C° 0 mm 2 mps 750 mmHg 69%
    13:00 +18°C° 0 mm 2 mps 750 mmHg 66%
    14:00 +19°C° 0 mm 2 mps 749 mmHg 63%
    15:00 +18°C° 0 mm 2 mps 749 mmHg 66%
    16:00 +19°C° 0 mm 1 mps 749 mmHg 69%
    17:00 +18°C° 0 mm 1 mps 749 mmHg 71%
    18:00 +16°C° 0 mm 1 mps 749 mmHg 73%
    19:00 +16°C° 0 mm 1 mps 749 mmHg 75%
    20:00 +15°C° 0 mm 1 mps 749 mmHg 77%
    21:00 +15°C° 0 mm 1 mps 749 mmHg 78%
    22:00 +14°C° 0 mm 1 mps 749 mmHg 79%
    23:00 +14°C° 0 mm 1 mps 749 mmHg 80%

    19 October, Saturday

    Time Temperature Precipitation Wind Pressure Humidity
    00:00 +14°C° 0 mm 1 mps 749 mmHg 80%
    01:00 +14°C° 0 mm 1 mps 749 mmHg 81%
    02:00 +14°C° 0 mm 1 mps 749 mmHg 81%
    03:00 +14°C° 0 mm 1 mps 749 mmHg 82%
    04:00 +13°C° 0 mm 1 mps 749 mmHg 83%
    05:00 +13°C° 0 mm 1 mps 749 mmHg 83%
    06:00 +13°C° 0 mm 2 mps 749 mmHg 84%
    07:00 +13°C° 0 mm 2 mps 749 mmHg 85%
    08:00 +13°C° 0 mm 2 mps 749 mmHg 86%
    09:00 +15°C° 0 mm 2 mps 749 mmHg 79%
    10:00 +17°C° 0 mm 3 mps 749 mmHg 72%
    11:00 +18°C° 0 mm 3 mps 749 mmHg 66%
    12:00 +19°C° 0 mm 3 mps 748 mmHg 62%
    13:00 +20°C° 0 mm 4 mps 748 mmHg 58%
    14:00 +21°C° 0 mm 4 mps 748 mmHg 54%
    15:00 +20°C° 0 mm 4 mps 748 mmHg 57%
    16:00 +20°C° 0 mm 3 mps 747 mmHg 60%
    17:00 +19°C° 0 mm 3 mps 747 mmHg 63%
    18:00 +18°C° 0 mm 3 mps 747 mmHg 65%
    19:00 +17°C° 0 mm 3 mps 747 mmHg 67%
    20:00 +15°C° 0 mm 4 mps 747 mmHg 69%
    21:00 +15°C° 0 mm 4 mps 747 mmHg 71%
    22:00 +14°C° 0 mm 3 mps 747 mmHg 73%
    23:00 +14°C° 0 mm 3 mps 747 mmHg 74%

    20 October, Sunday

    Time Temperature Precipitation Wind Pressure Humidity
    00:00 +14°C° 0 mm 3 mps 747 mmHg 73%
    01:00 +14°C° 0 mm 4 mps 747 mmHg 73%
    02:00 +14°C° 0 mm 4 mps 747 mmHg 72%
    03:00 +14°C° 0 mm 4 mps 747 mmHg 71%
    04:00 +13°C° 0 mm 4 mps 747 mmHg 71%
    05:00 +13°C° 0 mm 4 mps 747 mmHg 70%
    06:00 +13°C° 0 mm 4 mps 747 mmHg 70%
    07:00 +13°C° 0 mm 4 mps 747 mmHg 70%
    08:00 +13°C° 0 mm 3 mps 747 mmHg 70%
    09:00 +15°C° 0 mm 4 mps 747 mmHg 67%
    10:00 +17°C° 0 mm 4 mps 748 mmHg 63%
    11:00 +18°C° 0 mm 4 mps 748 mmHg 59%
    12:00 +19°C° 0 mm 4 mps 748 mmHg 57%
    13:00 +20°C° 0 mm 4 mps 748 mmHg 56%
    14:00 +21°C° 0 mm 3 mps 748 mmHg 54%
    15:00 +20°C° 0 mm 3 mps 748 mmHg 58%
    16:00 +19°C° 0 mm 2 mps 748 mmHg 61%
    17:00 +18°C° 0 mm 2 mps 749 mmHg 65%
    18:00 +17°C° 0 mm 2 mps 749 mmHg 67%
    19:00 +17°C° 0 mm 2 mps 749 mmHg 69%
    20:00 +16°C° 0 mm 2 mps 750 mmHg 71%
    21:00 +15°C° 0 mm 1 mps 750 mmHg 74%
    22:00 +15°C° 0 mm 1 mps 750 mmHg 77%
    23:00 +14°C° 0 mm 1 mps 750 mmHg 80%

    21 October, Monday

    Time Temperature Precipitation Wind Pressure Humidity
    00:00 +14°C° 0 mm 1 mps 751 mmHg 81%
    01:00 +14°C° 0 mm 1 mps 751 mmHg 82%
    02:00 +14°C° 0 mm 1 mps 751 mmHg 83%
    03:00 +13°C° 0 mm 1 mps 751 mmHg 85%
    04:00 +13°C° 0 mm 1 mps 751 mmHg 86%
    05:00 +11°C° 0 mm 0 mps 751 mmHg 88%
    06:00 +11°C° 0 mm 0 mps 751 mmHg 87%
    07:00 +13°C° 0 mm 1 mps 752 mmHg 86%
    08:00 +13°C° 0 mm 1 mps 752 mmHg 86%
    09:00 +14°C° 0 mm 1 mps 752 mmHg 79%
    10:00 +16°C° 0 mm 1 mps 752 mmHg 73%
    11:00 +18°C° 0 mm 1 mps 752 mmHg 66%
    12:00 +19°C° 0 mm 1 mps 752 mmHg 64%
    13:00 +20°C° 0 mm 1 mps 752 mmHg 61%
    14:00 +21°C° 0 mm 1 mps 752 mmHg 58%
    15:00 +19°C° 0 mm 2 mps 752 mmHg 62%
    16:00 +18°C° 0 mm 2 mps 752 mmHg 65%
    17:00 +17°C° 0 mm 2 mps 751 mmHg 69%
    18:00 +17°C° 0 mm 2 mps 752 mmHg 72%
    19:00 +16°C° 0 mm 2 mps 752 mmHg 74%
    20:00 +14°C° 0 mm 3 mps 752 mmHg 77%
    21:00 +14°C° 0 mm 3 mps 752 mmHg 78%
    22:00 +13°C° 0 mm 3 mps 751 mmHg 80%
    23:00 +13°C° 0 mm 3 mps 751 mmHg 81%
    Show more